Visibility
15.0 15.0 15.0 15.0 15.0 15.0 15.0 15.0 15.0 15.0 15.0 15.0 15.0 15.0 15.0 15.0 15.0 15.0 15.0 15.0 15.0 15.0 15.0 15.0 15.0 15.0 15.0 15.0 15.0 15.0 15.0 15.0 15.0 14.2 15.0 9.9 15.0 15.0 15.0 15.0 15.0 15.0 15.0 15.0
15.0 15.0 15.0 15.0 15.0 15.0 15.0 15.0 15.0 15.0 15.0 15.0 15.0 15.0 15.0 15.0 15.0 15.0 15.0 15.0 15.0 15.0 15.0 15.0 15.0 15.0 15.0 15.0 15.0 15.0 15.0 15.0 15.0 15.0 15.0 4.1 15.0 15.0 15.0 15.0 15.0 15.0 15.0 15.0
15.0 15.0 15.0 15.0 15.0 15.0 15.0 15.0 15.0 15.0 15.0 15.0 15.0 15.0 15.0 15.0 15.0 15.0 15.0 15.0 15.0 15.0 15.0 15.0 15.0 15.0 15.0 15.0 15.0 15.0 15.0 15.0 15.0 15.0 13.6 15.0 15.0 15.0 15.0 15.0 15.0 15.0 15.0 15.0
15.0 15.0 15.0 15.0 15.0 15.0 15.0 15.0 15.0 15.0 15.0 15.0 15.0 15.0 15.0 15.0 15.0 15.0 15.0 15.0 15.0 15.0 15.0 14.6 15.0 15.0 15.0 15.0 15.0 15.0 15.0 15.0 15.0 15.0 8.6 10.7 2.7 15.0 15.0 15.0 15.0 15.0 15.0 15.0
15.0 15.0 15.0 15.0 15.0 15.0 15.0 15.0 15.0 15.0 15.0 15.0 15.0 15.0 15.0 15.0 15.0 15.0 15.0 15.0 15.0 15.0 11.8 14.8 14.4 15.0 15.0 15.0 15.0 15.0 15.0 15.0 15.0 15.0 11.3 8.2 2.4 15.0 15.0 15.0 15.0 15.0 15.0 15.0
15.0 15.0 15.0 15.0 15.0 15.0 15.0 15.0 15.0 15.0 15.0 15.0 15.0 15.0 15.0 9.7 4.6 12.3 15.0 15.0 8.9 5.1 3.8 9.0 15.0 8.6 15.0 15.0 15.0 15.0 15.0 15.0 15.0 15.0 14.3 2.8 11.1 10.5 1.7 6.4 1.4 15.0 12.9 15.0
15.0 15.0 15.0 15.0 15.0 15.0 15.0 15.0 15.0 15.0 15.0 15.0 15.0 15.0 9.2 15.0 13.3 11.8 7.1 10.1 14.0 8.9 5.3 3.5 10.3 0.1 13.2 15.0 8.6 8.1 14.8 13.9 15.0 15.0 13.7 9.1 9.6 1.8 2.2 13.0 0.4 1.2 12.9 14.9
15.0 15.0 15.0 15.0 15.0 15.0 15.0 15.0 15.0 15.0 15.0 15.0 15.0 15.0 2.1 15.0 15.0 15.0 13.9 15.0 15.0 12.5 6.7 3.4 6.8 0.4 0.1 8.7 5.7 12.0 5.2 4.7 14.5 15.0 11.4 4.2 15.0 13.4 2.3 5.5 1.5 1.9 3.2 13.5
15.0 15.0 15.0 15.0 15.0 15.0 14.0 15.0 15.0 15.0 15.0 15.0 14.1 0.5 13.1 15.0 15.0 0.1 15.0 15.0 13.3 2.7 0.1 2.8 4.4 0.2 0.0 0.1 5.8 7.3 4.1 3.8 7.5 15.0 15.0 7.7 13.3 9.7 15.0 15.0 9.2 10.8 15.0 14.0
15.0 15.0 15.0 15.0 15.0 15.0 15.0 15.0 10.9 13.3 10.0 5.2 12.0 15.0 15.0 15.0 11.7 15.0 5.3 4.3 15.0 7.4 0.6 0.4 0.1 0.1 0.0 0.0 0.9 2.7 3.8 4.3 2.5 4.0 3.7 5.1 15.0 15.0 15.0 8.8 14.6 12.2 7.5 7.3
15.0 15.0 15.0 15.0 15.0 15.0 7.3 15.0 15.0 13.5 15.0 3.1 14.2 0.9 6.0 4.3 6.1 3.1 3.9 2.5 1.2 0.3 0.1 0.1 0.1 0.1 0.0 0.0 1.8 2.8 4.4 10.2 11.0 9.2 15.0 15.0 11.4 13.7 11.8 10.4 15.0 14.6 15.0 15.0
15.0 7.1 12.2 15.0 15.0 15.0 15.0 14.9 9.0 2.7 1.5 1.9 0.9 0.4 8.6 7.0 14.9 15.0 14.7 9.3 1.4 0.1 0.1 0.1 0.1 0.1 0.1 0.0 0.1 1.7 1.7 7.7 9.7 11.5 15.0 15.0 15.0 14.8 15.0 15.0 15.0 15.0 15.0 15.0
15.0 2.0 4.1 7.0 12.1 15.0 15.0 15.0 15.0 10.3 0.0 12.2 0.3 0.1 8.7 15.0 15.0 15.0 12.7 11.2 0.3 0.3 0.2 0.1 0.1 0.1 0.1 0.1 0.0 0.0 0.9 8.6 15.0 15.0 8.7 8.9 8.7 15.0 15.0 15.0 15.0 15.0 15.0 15.0
15.0 15.0 15.0 10.7 12.2 15.0 15.0 15.0 15.0 15.0 0.9 0.0 0.1 0.9 9.4 15.0 15.0 15.0 14.9 13.7 0.6 0.1 0.7 2.9 1.7 0.2 0.1 0.1 0.0 0.0 0.0 0.1 7.4 11.8 15.0 15.0 15.0 15.0 15.0 15.0 15.0 15.0 15.0 15.0
13.0 10.6 6.1 15.0 15.0 15.0 14.3 8.2 13.1 15.0 0.4 1.2 0.7 6.7 4.4 10.8 13.1 14.3 15.0 12.2 3.0 3.7 3.2 15.0 15.0 15.0 6.1 1.5 4.1 3.1 3.9 6.2 10.3 9.8 4.7 13.0 15.0 15.0 15.0 15.0 15.0 13.5 14.5 5.3
15.0 0.3 3.1 0.2 15.0 15.0 15.0 15.0 15.0 10.2 15.0 14.9 15.0 5.9 15.0 12.1 13.1 15.0 10.8 9.2 8.8 15.0 15.0 15.0 15.0 15.0 12.4 8.9 4.3 10.5 8.3 15.0 15.0 11.8 15.0 15.0 15.0 15.0 15.0 15.0 15.0 15.0 15.0 15.0
15.0 1.8 12.5 1.6 6.8 7.1 3.0 14.5 15.0 13.6 11.8 12.5 12.7 14.9 12.9 15.0 15.0 15.0 15.0 15.0 15.0 15.0 15.0 13.2 9.1 10.2 14.2 13.0 15.0 15.0 15.0 15.0 15.0 15.0 15.0 15.0 15.0 15.0 15.0 15.0 15.0 15.0 15.0 15.0
4.8 12.0 15.0 0.5 3.9 0.4 1.3 15.0 15.0 15.0 15.0 15.0 15.0 15.0 15.0 15.0 15.0 15.0 15.0 14.8 13.4 15.0 15.0 15.0 15.0 15.0 15.0 15.0 15.0 15.0 15.0 15.0 15.0 15.0 13.0 15.0 15.0 15.0 15.0 15.0 15.0 15.0 15.0 15.0
15.0 13.1 2.2 1.5 1.0 1.6 4.2 15.0 15.0 8.9 9.2 14.2 13.1 12.6 15.0 15.0 15.0 15.0 15.0 14.8 14.0 15.0 15.0 15.0 15.0 15.0 15.0 15.0 15.0 15.0 15.0 15.0 15.0 14.9 14.3 12.8 15.0 15.0 15.0 15.0 15.0 15.0 15.0 15.0
15.0 15.0 15.0 2.0 2.5 1.9 13.2 15.0 15.0 15.0 8.5 15.0 15.0 15.0 15.0 15.0 0.4 5.4 15.0 13.9 15.0 15.0 15.0 15.0 15.0 15.0 15.0 15.0 15.0 15.0 15.0 15.0 15.0 15.0 15.0 15.0 15.0 15.0 13.1 14.5 15.0 15.0 15.0 15.0
15.0 14.4 6.0 2.9 1.6 9.7 15.0 15.0 15.0 3.6 0.2 15.0 15.0 15.0 15.0 7.4 10.5 12.7 15.0 15.0 15.0 15.0 15.0 15.0 15.0 15.0 15.0 15.0 15.0 15.0 15.0 15.0 15.0 15.0 15.0 15.0 15.0 15.0 15.0 15.0 15.0 15.0 15.0 15.0
14.1 7.9 10.4 4.8 2.1 0.8 15.0 13.7 6.8 6.5 15.0 15.0 15.0 15.0 15.0 15.0 15.0 15.0 15.0 15.0 15.0 15.0 15.0 15.0 15.0 15.0 15.0 15.0 15.0 15.0 15.0 15.0 15.0 15.0 15.0 15.0 15.0 15.0 15.0 15.0 15.0 15.0 15.0 15.0
15.0 15.0 1.4 14.9 2.0 14.4 14.6 7.4 15.0 15.0 15.0 15.0 15.0 15.0 15.0 15.0 15.0 15.0 15.0 15.0 15.0 15.0 15.0 15.0 15.0 15.0 15.0 15.0 15.0 15.0 15.0 15.0 15.0 15.0 15.0 15.0 15.0 15.0 15.0 15.0 15.0 15.0 15.0 15.0
15.0 15.0 15.0 14.9 7.1 13.1 15.0 14.5 15.0 15.0 15.0 15.0 15.0 15.0 15.0 15.0 15.0 15.0 15.0 15.0 15.0 15.0 15.0 15.0 15.0 15.0 15.0 15.0 15.0 15.0 15.0 15.0 15.0 15.0 15.0 15.0 15.0 15.0 15.0 15.0 15.0 15.0 15.0 15.0
15.0 15.0 15.0 11.4 15.0 15.0 14.8 8.2 15.0 15.0 15.0 15.0 15.0 15.0 15.0 15.0 15.0 15.0 15.0 15.0 15.0 15.0 15.0 15.0 15.0 15.0 15.0 15.0 15.0 15.0 15.0 15.0 15.0 15.0 15.0 15.0 15.0 15.0 15.0 15.0 15.0 15.0 15.0 15.0
15.0 14.5 15.0 11.3 15.0 15.0 15.0 15.0 15.0 15.0 15.0 15.0 15.0 15.0 15.0 15.0 15.0 15.0 15.0 15.0 15.0 15.0 15.0 15.0 15.0 15.0 15.0 15.0 15.0 15.0 15.0 15.0 15.0 15.0 15.0 15.0 15.0 15.0 15.0 15.0 15.0 15.0 15.0 15.0